#datetime,building,power
2024-02-26T00:00:00,axn,31.33
2024-02-26T00:01:00,axn,31.29
2024-02-26T00:02:00,axn,31.31
2024-02-26T00:03:00,axn,31.16
2024-02-26T00:04:00,axn,31.04
2024-02-26T00:05:00,axn,30.77
2024-02-26T00:06:00,axn,30.99
2024-02-26T00:07:00,axn,31.35
2024-02-26T00:08:00,axn,31.42
2024-02-26T00:09:00,axn,31.16
2024-02-26T00:10:00,axn,31.44
2024-02-26T00:11:00,axn,31.32
2024-02-26T00:12:00,axn,31.86
2024-02-26T00:13:00,axn,31.37
2024-02-26T00:14:00,axn,31.29
2024-02-26T00:15:00,axn,31.38
2024-02-26T00:16:00,axn,48.78
2024-02-26T00:17:00,axn,30.55
2024-02-26T00:18:00,axn,30.49
2024-02-26T00:19:00,axn,30.70
2024-02-26T00:20:00,axn,31.21
2024-02-26T00:21:00,axn,30.97
2024-02-26T00:22:00,axn,31.07
2024-02-26T00:23:00,axn,30.99
2024-02-26T00:24:00,axn,31.13
2024-02-26T00:25:00,axn,30.88
2024-02-26T00:26:00,axn,31.10
2024-02-26T00:27:00,axn,30.17
2024-02-26T00:28:00,axn,30.76
2024-02-26T00:29:00,axn,30.71
2024-02-26T00:30:00,axn,30.72
2024-02-26T00:31:00,axn,30.39
2024-02-26T00:32:00,axn,30.81
2024-02-26T00:33:00,axn,30.63
2024-02-26T00:34:00,axn,31.06
2024-02-26T00:35:00,axn,30.42
2024-02-26T00:36:00,axn,30.45
2024-02-26T00:37:00,axn,30.25
2024-02-26T00:38:00,axn,30.35
2024-02-26T00:39:00,axn,29.81
2024-02-26T00:40:00,axn,29.68
2024-02-26T00:41:00,axn,30.33
2024-02-26T00:42:00,axn,30.31
2024-02-26T00:43:00,axn,30.10
2024-02-26T00:44:00,axn,29.60
2024-02-26T00:45:00,axn,29.49
2024-02-26T00:46:00,axn,29.59
2024-02-26T00:47:00,axn,30.01
2024-02-26T00:48:00,axn,29.98
2024-02-26T00:49:00,axn,30.00
2024-02-26T00:50:00,axn,29.85
2024-02-26T00:51:00,axn,29.65
2024-02-26T00:52:00,axn,29.68
2024-02-26T00:53:00,axn,30.04
2024-02-26T00:54:00,axn,29.88
2024-02-26T00:55:00,axn,30.21
2024-02-26T00:56:00,axn,30.14
2024-02-26T00:57:00,axn,29.93
2024-02-26T00:58:00,axn,30.00
2024-02-26T00:59:00,axn,29.94
2024-02-26T01:00:00,axn,30.09
2024-02-26T01:01:00,axn,29.79
2024-02-26T01:02:00,axn,29.81
2024-02-26T01:03:00,axn,29.38
2024-02-26T01:04:00,axn,29.50
2024-02-26T01:05:00,axn,29.43
2024-02-26T01:06:00,axn,29.59
2024-02-26T01:07:00,axn,29.98
2024-02-26T01:08:00,axn,29.67
2024-02-26T01:09:00,axn,29.84
2024-02-26T01:10:00,axn,29.94
2024-02-26T01:11:00,axn,30.04
2024-02-26T01:12:00,axn,29.83
2024-02-26T01:13:00,axn,29.94
2024-02-26T01:14:00,axn,29.92
2024-02-26T01:15:00,axn,30.06
2024-02-26T01:16:00,axn,30.10
2024-02-26T01:17:00,axn,30.22
2024-02-26T01:18:00,axn,29.97
2024-02-26T01:19:00,axn,35.78
2024-02-26T01:20:00,axn,35.75
2024-02-26T01:21:00,axn,35.82
2024-02-26T01:22:00,axn,30.30
2024-02-26T01:23:00,axn,29.89
2024-02-26T01:24:00,axn,29.91
2024-02-26T01:25:00,axn,30.01
2024-02-26T01:26:00,axn,30.67
2024-02-26T01:27:00,axn,30.68
2024-02-26T01:28:00,axn,30.17
2024-02-26T01:29:00,axn,30.12
2024-02-26T01:30:00,axn,30.00
2024-02-26T01:31:00,axn,30.13
2024-02-26T01:32:00,axn,30.28
2024-02-26T01:33:00,axn,30.13
2024-02-26T01:34:00,axn,29.89
2024-02-26T01:35:00,axn,29.97
2024-02-26T01:36:00,axn,30.17
2024-02-26T01:37:00,axn,30.22
2024-02-26T01:38:00,axn,30.52
2024-02-26T01:39:00,axn,30.65
2024-02-26T01:40:00,axn,30.47
2024-02-26T01:41:00,axn,30.53
2024-02-26T01:42:00,axn,30.66
2024-02-26T01:43:00,axn,30.57
2024-02-26T01:44:00,axn,30.40
2024-02-26T01:45:00,axn,30.53
2024-02-26T01:46:00,axn,30.48
2024-02-26T01:47:00,axn,30.38
2024-02-26T01:48:00,axn,30.41
2024-02-26T01:49:00,axn,30.31
2024-02-26T01:50:00,axn,30.21
2024-02-26T01:51:00,axn,30.49
2024-02-26T01:52:00,axn,30.24
2024-02-26T01:53:00,axn,30.19
2024-02-26T01:54:00,axn,30.28
2024-02-26T01:55:00,axn,30.28
2024-02-26T01:56:00,axn,30.28
2024-02-26T01:57:00,axn,30.54
2024-02-26T01:58:00,axn,30.49
2024-02-26T01:59:00,axn,30.40
2024-02-26T02:00:00,axn,30.36
2024-02-26T02:01:00,axn,30.45
2024-02-26T02:02:00,axn,30.62
2024-02-26T02:03:00,axn,30.30
2024-02-26T02:04:00,axn,30.35
2024-02-26T02:05:00,axn,30.43
2024-02-26T02:06:00,axn,30.35
2024-02-26T02:07:00,axn,30.42
2024-02-26T02:08:00,axn,30.26
2024-02-26T02:09:00,axn,30.61
2024-02-26T02:10:00,axn,30.76
2024-02-26T02:11:00,axn,30.67
2024-02-26T02:12:00,axn,30.59
2024-02-26T02:13:00,axn,30.62
2024-02-26T02:14:00,axn,31.10
2024-02-26T02:15:00,axn,31.28
2024-02-26T02:16:00,axn,30.72
2024-02-26T02:17:00,axn,30.72
2024-02-26T02:18:00,axn,33.43
2024-02-26T02:19:00,axn,33.76
2024-02-26T02:20:00,axn,30.43
2024-02-26T02:21:00,axn,30.45
2024-02-26T02:22:00,axn,30.38
2024-02-26T02:23:00,axn,30.45
2024-02-26T02:24:00,axn,30.41
2024-02-26T02:25:00,axn,30.59
2024-02-26T02:26:00,axn,30.43
2024-02-26T02:27:00,axn,30.15
2024-02-26T02:28:00,axn,29.82
2024-02-26T02:29:00,axn,29.86
2024-02-26T02:30:00,axn,29.90
2024-02-26T02:31:00,axn,29.87
2024-02-26T02:32:00,axn,29.80
2024-02-26T02:33:00,axn,30.34
2024-02-26T02:34:00,axn,30.28
2024-02-26T02:35:00,axn,30.22
2024-02-26T02:36:00,axn,30.28
2024-02-26T02:37:00,axn,30.10
2024-02-26T02:38:00,axn,30.43
2024-02-26T02:39:00,axn,30.74
2024-02-26T02:40:00,axn,30.50
2024-02-26T02:41:00,axn,30.35
2024-02-26T02:42:00,axn,30.45
2024-02-26T02:43:00,axn,30.37
2024-02-26T02:44:00,axn,30.39
2024-02-26T02:45:00,axn,30.26
2024-02-26T02:46:00,axn,30.51
2024-02-26T02:47:00,axn,30.41
2024-02-26T02:48:00,axn,30.80
2024-02-26T02:49:00,axn,30.81
2024-02-26T02:50:00,axn,30.47
2024-02-26T02:51:00,axn,30.48
2024-02-26T02:52:00,axn,30.66
2024-02-26T02:53:00,axn,30.58
2024-02-26T02:54:00,axn,30.09
2024-02-26T02:55:00,axn,30.07
2024-02-26T02:56:00,axn,29.89
2024-02-26T02:57:00,axn,29.98
2024-02-26T02:58:00,axn,30.01
2024-02-26T02:59:00,axn,30.10
2024-02-26T03:00:00,axn,30.13
2024-02-26T03:01:00,axn,29.97
2024-02-26T03:02:00,axn,29.89
2024-02-26T03:03:00,axn,30.03
2024-02-26T03:04:00,axn,29.83
2024-02-26T03:05:00,axn,30.44
2024-02-26T03:06:00,axn,29.78
2024-02-26T03:07:00,axn,29.64
2024-02-26T03:08:00,axn,29.94
2024-02-26T03:09:00,axn,29.89
2024-02-26T03:10:00,axn,29.39
2024-02-26T03:11:00,axn,29.31
2024-02-26T03:12:00,axn,29.38
2024-02-26T03:13:00,axn,29.33
2024-02-26T03:14:00,axn,29.25
2024-02-26T03:15:00,axn,30.05
2024-02-26T03:16:00,axn,29.60
2024-02-26T03:17:00,axn,29.64
2024-02-26T03:18:00,axn,29.46
2024-02-26T03:19:00,axn,29.53
2024-02-26T03:20:00,axn,29.58
2024-02-26T03:21:00,axn,29.54
2024-02-26T03:22:00,axn,29.41
2024-02-26T03:23:00,axn,29.50
2024-02-26T03:24:00,axn,29.44
2024-02-26T03:25:00,axn,29.25
2024-02-26T03:26:00,axn,29.44
2024-02-26T03:27:00,axn,29.78
2024-02-26T03:28:00,axn,29.57
2024-02-26T03:29:00,axn,29.97
2024-02-26T03:30:00,axn,29.81
2024-02-26T03:31:00,axn,29.73
2024-02-26T03:32:00,axn,29.79
2024-02-26T03:33:00,axn,29.79
2024-02-26T03:34:00,axn,29.75
2024-02-26T03:35:00,axn,40.43
2024-02-26T03:36:00,axn,40.63
2024-02-26T03:37:00,axn,40.31
2024-02-26T03:38:00,axn,40.50
2024-02-26T03:39:00,axn,30.22
2024-02-26T03:40:00,axn,30.51
2024-02-26T03:41:00,axn,30.30
2024-02-26T03:42:00,axn,30.13
2024-02-26T03:43:00,axn,30.26
2024-02-26T03:44:00,axn,30.10
2024-02-26T03:45:00,axn,30.10
2024-02-26T03:46:00,axn,30.06
2024-02-26T03:47:00,axn,29.96
2024-02-26T03:48:00,axn,29.97
2024-02-26T03:49:00,axn,30.13
2024-02-26T03:50:00,axn,30.15
2024-02-26T03:51:00,axn,29.98
2024-02-26T03:52:00,axn,29.94
2024-02-26T03:53:00,axn,30.00
2024-02-26T03:54:00,axn,29.87
2024-02-26T03:55:00,axn,30.09
2024-02-26T03:56:00,axn,30.27
2024-02-26T03:57:00,axn,29.87
2024-02-26T03:58:00,axn,29.85
2024-02-26T03:59:00,axn,29.93
2024-02-26T04:00:00,axn,30.47
2024-02-26T04:01:00,axn,29.96
2024-02-26T04:02:00,axn,29.85
2024-02-26T04:03:00,axn,29.81
2024-02-26T04:04:00,axn,30.19
2024-02-26T04:05:00,axn,29.90
2024-02-26T04:06:00,axn,29.81
2024-02-26T04:07:00,axn,29.86
2024-02-26T04:08:00,axn,29.87
2024-02-26T04:09:00,axn,29.70
2024-02-26T04:10:00,axn,29.88
2024-02-26T04:11:00,axn,29.91
2024-02-26T04:12:00,axn,30.15
2024-02-26T04:13:00,axn,29.74
2024-02-26T04:14:00,axn,29.42
2024-02-26T04:15:00,axn,29.31
2024-02-26T04:16:00,axn,29.88
2024-02-26T04:17:00,axn,29.34
2024-02-26T04:18:00,axn,50.14
2024-02-26T04:19:00,axn,49.87
2024-02-26T04:20:00,axn,49.86
2024-02-26T04:21:00,axn,43.72
2024-02-26T04:22:00,axn,43.52
2024-02-26T04:23:00,axn,43.25
2024-02-26T04:24:00,axn,29.20
2024-02-26T04:25:00,axn,29.12
2024-02-26T04:26:00,axn,29.26
2024-02-26T04:27:00,axn,29.17
2024-02-26T04:28:00,axn,34.64
2024-02-26T04:29:00,axn,29.76
2024-02-26T04:30:00,axn,29.69
2024-02-26T04:31:00,axn,29.62
2024-02-26T04:32:00,axn,29.55
2024-02-26T04:33:00,axn,29.39
2024-02-26T04:34:00,axn,29.48
2024-02-26T04:35:00,axn,29.56
2024-02-26T04:36:00,axn,29.52
2024-02-26T04:37:00,axn,29.48
2024-02-26T04:38:00,axn,29.60
2024-02-26T04:39:00,axn,29.62
2024-02-26T04:40:00,axn,29.48
2024-02-26T04:41:00,axn,29.53
2024-02-26T04:42:00,axn,29.78
2024-02-26T04:43:00,axn,30.19
2024-02-26T04:44:00,axn,30.23
2024-02-26T04:45:00,axn,30.51
2024-02-26T04:46:00,axn,30.65
2024-02-26T04:47:00,axn,30.63
2024-02-26T04:48:00,axn,30.57
2024-02-26T04:49:00,axn,30.71
2024-02-26T04:50:00,axn,31.23
2024-02-26T04:51:00,axn,31.34
2024-02-26T04:52:00,axn,31.15
2024-02-26T04:53:00,axn,31.17
2024-02-26T04:54:00,axn,31.39
2024-02-26T04:55:00,axn,31.75
2024-02-26T04:56:00,axn,32.62
2024-02-26T04:57:00,axn,31.99
2024-02-26T04:58:00,axn,31.98
2024-02-26T04:59:00,axn,31.92
2024-02-26T05:00:00,axn,31.87
2024-02-26T05:01:00,axn,29.30
2024-02-26T05:02:00,axn,33.40
2024-02-26T05:03:00,axn,34.08
2024-02-26T05:04:00,axn,34.07
2024-02-26T05:05:00,axn,34.39
2024-02-26T05:06:00,axn,33.60
2024-02-26T05:07:00,axn,33.71
2024-02-26T05:08:00,axn,33.59
2024-02-26T05:09:00,axn,33.76
2024-02-26T05:10:00,axn,33.25
2024-02-26T05:11:00,axn,33.33
2024-02-26T05:12:00,axn,28.75
2024-02-26T05:13:00,axn,28.84
2024-02-26T05:14:00,axn,28.70
2024-02-26T05:15:00,axn,28.50
2024-02-26T05:16:00,axn,28.46
2024-02-26T05:17:00,axn,28.39
2024-02-26T05:18:00,axn,28.43
2024-02-26T05:19:00,axn,28.75
2024-02-26T05:20:00,axn,29.24
2024-02-26T05:21:00,axn,29.24
2024-02-26T05:22:00,axn,29.24
2024-02-26T05:23:00,axn,29.57
2024-02-26T05:24:00,axn,29.95
2024-02-26T05:25:00,axn,30.05
2024-02-26T05:26:00,axn,30.01
2024-02-26T05:27:00,axn,30.00
2024-02-26T05:28:00,axn,31.79
2024-02-26T05:29:00,axn,35.84
2024-02-26T05:30:00,axn,35.75
2024-02-26T05:31:00,axn,32.05
2024-02-26T05:32:00,axn,32.07
2024-02-26T05:33:00,axn,32.45
2024-02-26T05:34:00,axn,32.14
2024-02-26T05:35:00,axn,32.34
2024-02-26T05:36:00,axn,31.88
2024-02-26T05:37:00,axn,31.88
2024-02-26T05:38:00,axn,32.13
2024-02-26T05:39:00,axn,32.04
2024-02-26T05:40:00,axn,32.22
2024-02-26T05:41:00,axn,31.98
2024-02-26T05:42:00,axn,32.00
2024-02-26T05:43:00,axn,31.96
2024-02-26T05:44:00,axn,34.98
2024-02-26T05:45:00,axn,31.93
2024-02-26T05:46:00,axn,31.61
2024-02-26T05:47:00,axn,31.76
2024-02-26T05:48:00,axn,34.59
2024-02-26T05:49:00,axn,36.50
2024-02-26T05:50:00,axn,37.61
2024-02-26T05:51:00,axn,37.66
2024-02-26T05:52:00,axn,37.90
2024-02-26T05:53:00,axn,38.28
2024-02-26T05:54:00,axn,38.31
2024-02-26T05:55:00,axn,37.89
2024-02-26T05:56:00,axn,38.35
2024-02-26T05:57:00,axn,38.39
2024-02-26T05:58:00,axn,37.99
2024-02-26T05:59:00,axn,37.15
2024-02-26T06:00:00,axn,42.02
2024-02-26T06:01:00,axn,41.46
2024-02-26T06:02:00,axn,37.68
2024-02-26T06:03:00,axn,38.31
2024-02-26T06:04:00,axn,38.01
2024-02-26T06:05:00,axn,37.40
2024-02-26T06:06:00,axn,37.10
2024-02-26T06:07:00,axn,36.94
2024-02-26T06:08:00,axn,36.83
2024-02-26T06:09:00,axn,36.16
2024-02-26T06:10:00,axn,35.48
2024-02-26T06:11:00,axn,35.28
2024-02-26T06:12:00,axn,35.17
2024-02-26T06:13:00,axn,35.06
2024-02-26T06:14:00,axn,34.50
2024-02-26T06:15:00,axn,34.82
2024-02-26T06:16:00,axn,34.56
2024-02-26T06:17:00,axn,34.08
2024-02-26T06:18:00,axn,34.04
2024-02-26T06:19:00,axn,34.21
2024-02-26T06:20:00,axn,34.48
2024-02-26T06:21:00,axn,34.35
2024-02-26T06:22:00,axn,34.07
2024-02-26T06:23:00,axn,33.46
2024-02-26T06:24:00,axn,33.91
2024-02-26T06:25:00,axn,33.67
2024-02-26T06:26:00,axn,33.60
2024-02-26T06:27:00,axn,33.89
2024-02-26T06:28:00,axn,39.86
2024-02-26T06:29:00,axn,39.77
2024-02-26T06:30:00,axn,40.15
2024-02-26T06:31:00,axn,33.90
2024-02-26T06:32:00,axn,50.99
2024-02-26T06:33:00,axn,33.87
2024-02-26T06:34:00,axn,37.90
2024-02-26T06:35:00,axn,37.45
2024-02-26T06:36:00,axn,32.92
2024-02-26T06:37:00,axn,38.01
2024-02-26T06:38:00,axn,33.06
2024-02-26T06:39:00,axn,32.78
2024-02-26T06:40:00,axn,32.87
2024-02-26T06:41:00,axn,33.14
2024-02-26T06:42:00,axn,32.85
2024-02-26T06:43:00,axn,32.84
2024-02-26T06:44:00,axn,32.83
2024-02-26T06:45:00,axn,32.91
2024-02-26T06:46:00,axn,37.97
2024-02-26T06:47:00,axn,33.11
2024-02-26T06:48:00,axn,32.78
2024-02-26T06:49:00,axn,32.96
2024-02-26T06:50:00,axn,33.24
2024-02-26T06:51:00,axn,33.00
2024-02-26T06:52:00,axn,43.18
2024-02-26T06:53:00,axn,33.59
2024-02-26T06:54:00,axn,32.84
2024-02-26T06:55:00,axn,32.66
2024-02-26T06:56:00,axn,32.90
2024-02-26T06:57:00,axn,32.77
2024-02-26T06:58:00,axn,32.68
2024-02-26T06:59:00,axn,32.53
2024-02-26T07:00:00,axn,32.65
2024-02-26T07:01:00,axn,32.76
2024-02-26T07:02:00,axn,34.43
2024-02-26T07:03:00,axn,35.65
2024-02-26T07:04:00,axn,35.41
2024-02-26T07:05:00,axn,35.02
2024-02-26T07:06:00,axn,35.36
2024-02-26T07:07:00,axn,34.55
2024-02-26T07:08:00,axn,38.87
2024-02-26T07:09:00,axn,39.03
2024-02-26T07:10:00,axn,34.33
2024-02-26T07:11:00,axn,33.88
2024-02-26T07:12:00,axn,33.91
2024-02-26T07:13:00,axn,34.39
2024-02-26T07:14:00,axn,34.29
2024-02-26T07:15:00,axn,36.34
2024-02-26T07:16:00,axn,37.81
2024-02-26T07:17:00,axn,37.60
2024-02-26T07:18:00,axn,37.80
2024-02-26T07:19:00,axn,37.54
2024-02-26T07:20:00,axn,37.42
2024-02-26T07:21:00,axn,37.59
2024-02-26T07:22:00,axn,37.76
2024-02-26T07:23:00,axn,37.36
2024-02-26T07:24:00,axn,37.43
2024-02-26T07:25:00,axn,37.56
2024-02-26T07:26:00,axn,37.54
2024-02-26T07:27:00,axn,37.78
2024-02-26T07:28:00,axn,37.88
2024-02-26T07:29:00,axn,38.31
2024-02-26T07:30:00,axn,38.09
2024-02-26T07:31:00,axn,37.90
2024-02-26T07:32:00,axn,37.94
2024-02-26T07:33:00,axn,37.87
2024-02-26T07:34:00,axn,40.22
2024-02-26T07:35:00,axn,49.91
2024-02-26T07:36:00,axn,39.63
2024-02-26T07:37:00,axn,38.47
2024-02-26T07:38:00,axn,38.62
2024-02-26T07:39:00,axn,38.38
2024-02-26T07:40:00,axn,39.68
2024-02-26T07:41:00,axn,43.16
2024-02-26T07:42:00,axn,39.99
2024-02-26T07:43:00,axn,39.78
2024-02-26T07:44:00,axn,38.44
2024-02-26T07:45:00,axn,38.28
2024-02-26T07:46:00,axn,38.32
2024-02-26T07:47:00,axn,38.02
2024-02-26T07:48:00,axn,38.03
2024-02-26T07:49:00,axn,38.11
2024-02-26T07:50:00,axn,37.79
2024-02-26T07:51:00,axn,38.11
2024-02-26T07:52:00,axn,39.32
2024-02-26T07:53:00,axn,38.32
2024-02-26T07:54:00,axn,39.07
2024-02-26T07:55:00,axn,39.80
2024-02-26T07:56:00,axn,38.32
2024-02-26T07:57:00,axn,38.14
2024-02-26T07:58:00,axn,37.81
2024-02-26T07:59:00,axn,37.77
2024-02-26T08:00:00,axn,37.97
2024-02-26T08:01:00,axn,38.32
2024-02-26T08:02:00,axn,39.88
2024-02-26T08:03:00,axn,40.36
2024-02-26T08:04:00,axn,40.55
2024-02-26T08:05:00,axn,40.22
2024-02-26T08:06:00,axn,41.17
2024-02-26T08:07:00,axn,40.51
2024-02-26T08:08:00,axn,40.41
2024-02-26T08:09:00,axn,40.35
2024-02-26T08:10:00,axn,40.97
2024-02-26T08:11:00,axn,51.01
2024-02-26T08:12:00,axn,52.89
2024-02-26T08:13:00,axn,56.68
2024-02-26T08:14:00,axn,50.39
2024-02-26T08:15:00,axn,50.32
2024-02-26T08:16:00,axn,42.17
2024-02-26T08:17:00,axn,41.80
2024-02-26T08:18:00,axn,42.24
2024-02-26T08:19:00,axn,41.56
2024-02-26T08:20:00,axn,41.86
2024-02-26T08:21:00,axn,41.76
2024-02-26T08:22:00,axn,42.12
2024-02-26T08:23:00,axn,41.95
2024-02-26T08:24:00,axn,42.19
2024-02-26T08:25:00,axn,42.94
2024-02-26T08:26:00,axn,42.01
2024-02-26T08:27:00,axn,42.22
2024-02-26T08:28:00,axn,43.39
2024-02-26T08:29:00,axn,42.76
2024-02-26T08:30:00,axn,46.93
2024-02-26T08:31:00,axn,46.54
2024-02-26T08:32:00,axn,43.02
2024-02-26T08:33:00,axn,43.34
2024-02-26T08:34:00,axn,42.93
2024-02-26T08:35:00,axn,45.06
2024-02-26T08:36:00,axn,43.80
2024-02-26T08:37:00,axn,43.48
2024-02-26T08:38:00,axn,42.66
2024-02-26T08:39:00,axn,42.77
2024-02-26T08:40:00,axn,43.65
2024-02-26T08:41:00,axn,43.38
2024-02-26T08:42:00,axn,49.18
2024-02-26T08:43:00,axn,48.54
2024-02-26T08:44:00,axn,46.31
2024-02-26T08:45:00,axn,43.69
2024-02-26T08:46:00,axn,44.34
2024-02-26T08:47:00,axn,43.55
2024-02-26T08:48:00,axn,44.79
2024-02-26T08:49:00,axn,44.01
2024-02-26T08:50:00,axn,43.30
2024-02-26T08:51:00,axn,43.16
2024-02-26T08:52:00,axn,43.80
2024-02-26T08:53:00,axn,43.81
2024-02-26T08:54:00,axn,45.13
2024-02-26T08:55:00,axn,43.50
2024-02-26T08:56:00,axn,45.49
2024-02-26T08:57:00,axn,44.04
2024-02-26T08:58:00,axn,58.85
2024-02-26T08:59:00,axn,64.43
2024-02-26T09:00:00,axn,65.77
2024-02-26T09:01:00,axn,64.41
2024-02-26T09:02:00,axn,58.55
2024-02-26T09:03:00,axn,59.52
2024-02-26T09:04:00,axn,58.82
2024-02-26T09:05:00,axn,44.55
2024-02-26T09:06:00,axn,44.83
2024-02-26T09:07:00,axn,45.12
2024-02-26T09:08:00,axn,45.03
2024-02-26T09:09:00,axn,47.40
2024-02-26T09:10:00,axn,45.11
2024-02-26T09:11:00,axn,44.85
2024-02-26T09:12:00,axn,44.72
2024-02-26T09:13:00,axn,44.32
2024-02-26T09:14:00,axn,48.85
2024-02-26T09:15:00,axn,48.51
2024-02-26T09:16:00,axn,44.16
2024-02-26T09:17:00,axn,43.57
2024-02-26T09:18:00,axn,44.04
2024-02-26T09:19:00,axn,45.10
2024-02-26T09:20:00,axn,44.05
2024-02-26T09:21:00,axn,44.20
2024-02-26T09:22:00,axn,44.92
2024-02-26T09:23:00,axn,45.13
2024-02-26T09:24:00,axn,44.25
2024-02-26T09:25:00,axn,44.65
2024-02-26T09:26:00,axn,44.50
2024-02-26T09:27:00,axn,44.55
2024-02-26T09:28:00,axn,44.78
2024-02-26T09:29:00,axn,44.94
2024-02-26T09:30:00,axn,45.46
2024-02-26T09:31:00,axn,45.61
2024-02-26T09:32:00,axn,45.46
2024-02-26T09:33:00,axn,44.84
2024-02-26T09:34:00,axn,45.69
2024-02-26T09:35:00,axn,45.76
2024-02-26T09:36:00,axn,61.70
2024-02-26T09:37:00,axn,45.98
2024-02-26T09:38:00,axn,45.62
2024-02-26T09:39:00,axn,50.79
2024-02-26T09:40:00,axn,47.23
2024-02-26T09:41:00,axn,52.94
2024-02-26T09:42:00,axn,48.48
2024-02-26T09:43:00,axn,48.08
2024-02-26T09:44:00,axn,48.36
2024-02-26T09:45:00,axn,47.92
2024-02-26T09:46:00,axn,48.43
2024-02-26T09:47:00,axn,48.29
2024-02-26T09:48:00,axn,47.99
2024-02-26T09:49:00,axn,48.09
2024-02-26T09:50:00,axn,48.22
2024-02-26T09:51:00,axn,48.05
2024-02-26T09:52:00,axn,48.26
2024-02-26T09:53:00,axn,49.02
2024-02-26T09:54:00,axn,48.46
2024-02-26T09:55:00,axn,47.63
2024-02-26T09:56:00,axn,48.89
2024-02-26T09:57:00,axn,47.22
2024-02-26T09:58:00,axn,47.05
2024-02-26T09:59:00,axn,47.23
2024-02-26T10:00:00,axn,46.91
2024-02-26T10:01:00,axn,51.93
2024-02-26T10:02:00,axn,51.94
2024-02-26T10:03:00,axn,47.38
2024-02-26T10:04:00,axn,47.24
2024-02-26T10:05:00,axn,47.29
2024-02-26T10:06:00,axn,48.45
2024-02-26T10:07:00,axn,48.89
2024-02-26T10:08:00,axn,48.10
2024-02-26T10:09:00,axn,47.28
2024-02-26T10:10:00,axn,47.68
2024-02-26T10:11:00,axn,50.31
2024-02-26T10:12:00,axn,50.60
2024-02-26T10:13:00,axn,47.63
2024-02-26T10:14:00,axn,47.52
2024-02-26T10:15:00,axn,47.59
2024-02-26T10:16:00,axn,47.86
2024-02-26T10:17:00,axn,48.03
2024-02-26T10:18:00,axn,47.74
2024-02-26T10:19:00,axn,47.73
2024-02-26T10:20:00,axn,47.97
2024-02-26T10:21:00,axn,47.96
2024-02-26T10:22:00,axn,49.09
2024-02-26T10:23:00,axn,48.95
2024-02-26T10:24:00,axn,48.89
2024-02-26T10:25:00,axn,47.79
2024-02-26T10:26:00,axn,47.82
2024-02-26T10:27:00,axn,47.50
2024-02-26T10:28:00,axn,47.83
2024-02-26T10:29:00,axn,47.38
2024-02-26T10:30:00,axn,47.29
2024-02-26T10:31:00,axn,51.84
2024-02-26T10:32:00,axn,47.69
2024-02-26T10:33:00,axn,47.31
2024-02-26T10:34:00,axn,47.78
2024-02-26T10:35:00,axn,47.70
2024-02-26T10:36:00,axn,47.03
2024-02-26T10:37:00,axn,47.41
2024-02-26T10:38:00,axn,46.61
2024-02-26T10:39:00,axn,47.48
2024-02-26T10:40:00,axn,48.02
2024-02-26T10:41:00,axn,48.25
2024-02-26T10:42:00,axn,48.01
2024-02-26T10:43:00,axn,48.15
2024-02-26T10:44:00,axn,48.66
2024-02-26T10:45:00,axn,48.49
2024-02-26T10:46:00,axn,47.64
2024-02-26T10:47:00,axn,47.04
2024-02-26T10:48:00,axn,47.55
2024-02-26T10:49:00,axn,47.27
2024-02-26T10:50:00,axn,47.52
2024-02-26T10:51:00,axn,46.99
2024-02-26T10:52:00,axn,46.93
2024-02-26T10:53:00,axn,51.21
2024-02-26T10:54:00,axn,51.17
2024-02-26T10:55:00,axn,47.11
2024-02-26T10:56:00,axn,47.11
2024-02-26T10:57:00,axn,47.34
2024-02-26T10:58:00,axn,46.85
2024-02-26T10:59:00,axn,47.56
2024-02-26T11:00:00,axn,47.88
2024-02-26T11:01:00,axn,47.89
2024-02-26T11:02:00,axn,47.48
2024-02-26T11:03:00,axn,47.73
2024-02-26T11:04:00,axn,46.34
2024-02-26T11:05:00,axn,46.34
2024-02-26T11:06:00,axn,46.84
2024-02-26T11:07:00,axn,46.82
2024-02-26T11:08:00,axn,46.69
2024-02-26T11:09:00,axn,49.27
2024-02-26T11:10:00,axn,52.16
2024-02-26T11:11:00,axn,47.58
2024-02-26T11:12:00,axn,48.04
2024-02-26T11:13:00,axn,47.69
2024-02-26T11:14:00,axn,47.69
2024-02-26T11:15:00,axn,47.69
2024-02-26T11:16:00,axn,47.68
2024-02-26T11:17:00,axn,48.39
2024-02-26T11:18:00,axn,47.66
2024-02-26T11:19:00,axn,47.21
2024-02-26T11:20:00,axn,47.00
2024-02-26T11:21:00,axn,46.74
2024-02-26T11:22:00,axn,46.46
2024-02-26T11:23:00,axn,47.57
2024-02-26T11:24:00,axn,46.31
2024-02-26T11:25:00,axn,47.25
2024-02-26T11:26:00,axn,47.44
2024-02-26T11:27:00,axn,47.13
2024-02-26T11:28:00,axn,47.83
2024-02-26T11:29:00,axn,46.55
2024-02-26T11:30:00,axn,46.10
2024-02-26T11:31:00,axn,51.22
2024-02-26T11:32:00,axn,51.06
2024-02-26T11:33:00,axn,46.64
2024-02-26T11:34:00,axn,45.89
2024-02-26T11:35:00,axn,45.72
2024-02-26T11:36:00,axn,46.07
2024-02-26T11:37:00,axn,45.63
2024-02-26T11:38:00,axn,62.86
2024-02-26T11:39:00,axn,48.63
2024-02-26T11:40:00,axn,48.47
2024-02-26T11:41:00,axn,45.71
2024-02-26T11:42:00,axn,45.82
2024-02-26T11:43:00,axn,50.25
2024-02-26T11:44:00,axn,50.20
2024-02-26T11:45:00,axn,47.34
2024-02-26T11:46:00,axn,45.60
2024-02-26T11:47:00,axn,51.72
2024-02-26T11:48:00,axn,69.95
2024-02-26T11:49:00,axn,51.43
2024-02-26T11:50:00,axn,61.59
2024-02-26T11:51:00,axn,55.90
2024-02-26T11:52:00,axn,56.35
2024-02-26T11:53:00,axn,56.36
2024-02-26T11:54:00,axn,55.96
2024-02-26T11:55:00,axn,55.63
2024-02-26T11:56:00,axn,45.63
2024-02-26T11:57:00,axn,50.42
2024-02-26T11:58:00,axn,49.66
2024-02-26T11:59:00,axn,46.15
2024-02-26T12:00:00,axn,46.58
2024-02-26T12:01:00,axn,46.23
2024-02-26T12:02:00,axn,45.59
2024-02-26T12:03:00,axn,45.78
2024-02-26T12:04:00,axn,46.88
2024-02-26T12:05:00,axn,48.07
2024-02-26T12:06:00,axn,48.55
2024-02-26T12:07:00,axn,48.14
2024-02-26T12:08:00,axn,47.37
2024-02-26T12:09:00,axn,47.10
2024-02-26T12:10:00,axn,46.86
2024-02-26T12:11:00,axn,47.27
2024-02-26T12:12:00,axn,57.89
2024-02-26T12:13:00,axn,46.00
2024-02-26T12:14:00,axn,46.98
2024-02-26T12:15:00,axn,46.25
2024-02-26T12:16:00,axn,46.83
2024-02-26T12:17:00,axn,45.84
2024-02-26T12:18:00,axn,45.49
2024-02-26T12:19:00,axn,45.57
2024-02-26T12:20:00,axn,45.39
2024-02-26T12:21:00,axn,49.98
2024-02-26T12:22:00,axn,49.63
2024-02-26T12:23:00,axn,45.09
2024-02-26T12:24:00,axn,44.51
2024-02-26T12:25:00,axn,45.30
2024-02-26T12:26:00,axn,44.29
2024-02-26T12:27:00,axn,46.53
2024-02-26T12:28:00,axn,44.99
2024-02-26T12:29:00,axn,45.10
2024-02-26T12:30:00,axn,44.12
2024-02-26T12:31:00,axn,44.46
2024-02-26T12:32:00,axn,46.02
2024-02-26T12:33:00,axn,43.54
2024-02-26T12:34:00,axn,44.22
2024-02-26T12:35:00,axn,43.24
2024-02-26T12:36:00,axn,44.54
2024-02-26T12:37:00,axn,44.64
2024-02-26T12:38:00,axn,45.06
2024-02-26T12:39:00,axn,43.26
2024-02-26T12:40:00,axn,44.98
2024-02-26T12:41:00,axn,44.74
2024-02-26T12:42:00,axn,44.58
2024-02-26T12:43:00,axn,44.83
2024-02-26T12:44:00,axn,43.93
2024-02-26T12:45:00,axn,44.52
2024-02-26T12:46:00,axn,44.91
2024-02-26T12:47:00,axn,44.73
2024-02-26T12:48:00,axn,45.18
2024-02-26T12:49:00,axn,49.68
2024-02-26T12:50:00,axn,48.84
2024-02-26T12:51:00,axn,44.95
2024-02-26T12:52:00,axn,45.10
2024-02-26T12:53:00,axn,44.99
2024-02-26T12:54:00,axn,44.52
2024-02-26T12:55:00,axn,44.68
2024-02-26T12:56:00,axn,44.84
2024-02-26T12:57:00,axn,44.15
2024-02-26T12:58:00,axn,44.56
2024-02-26T12:59:00,axn,44.53
2024-02-26T13:00:00,axn,44.51
2024-02-26T13:01:00,axn,43.78
2024-02-26T13:02:00,axn,44.08
2024-02-26T13:03:00,axn,58.37
2024-02-26T13:04:00,axn,58.06
2024-02-26T13:05:00,axn,57.66
2024-02-26T13:06:00,axn,65.69
2024-02-26T13:07:00,axn,65.38
2024-02-26T13:08:00,axn,65.54
2024-02-26T13:09:00,axn,51.66
2024-02-26T13:10:00,axn,53.94
2024-02-26T13:11:00,axn,53.99
2024-02-26T13:12:00,axn,55.16
2024-02-26T13:13:00,axn,55.49
2024-02-26T13:14:00,axn,50.94
2024-02-26T13:15:00,axn,51.10
2024-02-26T13:16:00,axn,51.88
2024-02-26T13:17:00,axn,51.62
2024-02-26T13:18:00,axn,51.36